CW9927 Weather Reports


time (UTC)temp
C
wind
direction
speed
KPH
gust
KPH
rain 1hr
cm
rain 24hr
cm
rain mn
cm
humidity
%
barometer
mb
20260508082316 11 0.0 0.0 0.00 0.00 0.00 89 1018.8
20260508081316 10 0.0 0.0 0.00 0.00 0.00 89 1018.8
20260508080316 10 0.0 0.0 0.00 0.00 0.00 89 1018.8
20260508075316 10 0.0 0.0 0.00 0.00 0.00 87 1018.7
20260508074316 10 0.0 0.0 0.00 0.00 0.00 87 1018.6
20260508073316 10 0.0 0.0 0.00 0.00 0.00 86 1018.6
20260508072316 10 0.0 0.0 0.00 0.00 0.00 87 1018.5
20260508071316 10 0.0 0.0 0.00 0.00 0.00 87 1018.4
20260508070408 11 0.0 0.0 0.00 0.00 0.00 86 1018.3
20260508070211 11 0.0 0.0 0.00 0.00 0.00 86 1018.3
20260508065116 11 0.0 0.0 0.00 0.00 0.00 86 1018.3
20260508064116 11 0.0 0.0 0.00 0.00 0.00 86 1018.2
20260508063138 11 0.0 0.0 0.00 0.00 0.00 86 1018.3
20260508062116 11 0.0 0.0 0.00 0.00 0.00 86 1018.3
20260508061116 11 0.0 0.0 0.00 0.00 0.00 85 1018.2
20260508060136 11 0.0 0.0 0.00 0.00 0.00 85 1018.2
20260508055116 11 0.0 0.0 0.00 0.00 0.00 85 1018.4
20260508054156 11 0.0 0.0 0.00 0.00 0.00 85 1018.4
20260508053118 12 0.0 0.0 0.00 0.00 0.00 85 1018.3
20260508052116 12 0.0 0.0 0.00 0.00 0.00 85 1018.2
20260508051117 12 0.0 0.0 0.00 0.00 0.00 84 1018.1
20260508050147 12 0.0 0.0 0.00 0.00 0.00 84 1018.2
20260508045116 12 0.0 0.0 0.00 0.00 0.00 83 1018.0
20260508044116 12 0.0 0.0 0.00 0.00 0.00 83 1017.9
20260508043116 12 0.0 0.0 0.00 0.00 0.00 82 1017.8
20260508042137 13 0.0 0.0 0.00 0.00 0.00 82 1017.9
20260508041116 13 0.0 0.0 0.00 0.00 0.00 81 1017.7
20260508040117 13 0.0 0.0 0.00 0.00 0.00 80 1017.6
20260508035117 13 0.0 0.0 0.00 0.00 0.00 80 1017.5
20260508034116 13 0.0 0.0 0.00 0.00 0.00 80 1017.3
20260508033117 14 0.0 0.0 0.00 0.00 0.00 78 1017.3
20260508032116 14 0.0 0.0 0.00 0.00 0.00 77 1017.2
20260508031116 15 0.0 0.0 0.00 0.00 0.00 75 1017.2
20260508030116 15 0.0 0.0 0.00 0.00 0.00 74 1017.1
20260508025117 16 0.0 0.0 0.00 0.00 0.00 73 1016.9
20260508024136 16 0.0 0.0 0.00 0.00 0.00 70 1016.8
20260508023137 17 0.0 0.0 0.00 0.00 0.00 68 1016.8
20260508022116 18 0.0 0.0 0.00 0.00 0.00 68 1016.7
20260508021116 18 0.0 0.0 0.00 0.00 0.00 68 1016.6
20260508020116 19 0.0 0.0 0.00 0.00 0.00 67 1016.6
20260508015116 20 0.0 0.0 0.00 0.00 0.00 65 1016.4
20260508014116 21 0.0 0.0 0.00 0.00 0.00 63 1016.4
20260508013116 21 0.0 0.0 0.00 0.00 0.00 64 1016.4
20260508012116 21 0.0 0.0 0.00 0.00 0.00 64 1016.3
20260508011117 22 0.0 0.0 0.00 0.00 0.00 63 1016.4
20260508005118 23 0.0 0.0 0.00 0.00 0.00 60 1016.2
20260508004117 23 0.0 0.0 0.00 0.00 0.00 60 1016.2
20260508003118 23 0.0 0.0 0.00 0.00 0.00 61 1016.0
20260508002117 23 0.0 0.0 0.00 0.00 0.00 61 1016.0
20260508001118 24 0.0 1.6 0.00 0.00 0.00 60 1016.0
20260508000118 24 0.0 4.8 0.00 0.00 0.00 60 1015.9
20260507235138 25 0.0 0.0 0.00 0.00 0.00 59 1015.9
20260507234117 25 0.0 0.0 0.00 0.00 0.00 59 1015.7
20260507233118 26 0.0 0.0 0.00 0.00 0.00 59 1015.7
20260507232158 26 0.0 0.0 0.00 0.00 0.00 58 1015.8
20260507231118 26 0.0 0.0 0.00 0.00 0.00 58 1015.8
20260507230118 26 0.0 0.0 0.00 0.00 0.00 56 1015.9
20260507225118 26 0.0 0.0 0.00 0.00 0.00 56 1015.9
20260507224117 26 0.0 0.0 0.00 0.00 0.00 55 1016.0
20260507223138 27 0.0 0.0 0.00 0.00 0.00 54 1016.0
20260507222138 26 0.0 0.0 0.00 0.00 0.00 56 1016.1
20260507221117 26 0.0 0.0 0.00 0.00 0.00 56 1016.2
20260507220117 27 0.0 0.0 0.00 0.00 0.00 56 1016.3
20260507215117 27 0.0 0.0 0.00 0.00 0.00 54 1016.5
20260507214118 27 0.0 0.0 0.00 0.00 0.00 52 1016.5
20260507213117 27 0.0 0.0 0.00 0.00 0.00 53 1016.5
20260507212117 27 0.0 0.0 0.00 0.00 0.00 53 1016.7
20260507211117 27 0.0 0.0 0.00 0.00 0.00 53 1016.9
20260507210117 26 0.0 0.0 0.00 0.00 0.00 55 1016.9
20260507205118 26 0.0 0.0 0.00 0.00 0.00 55 1017.1
20260507204117 25 0.0 0.0 0.00 0.00 0.00 56 1017.1
20260507203116 25 0.0 0.0 0.00 0.00 0.00 57 1017.3
20260507202117 25 0.0 0.0 0.00 0.00 0.00 58 1017.4
20260507201117 24 0.0 0.0 0.00 0.00 0.00 61 1017.5
20260507200138 24 0.0 0.0 0.00 0.00 0.00 62 1017.6
20260507195117 23 0.0 0.0 0.00 0.00 0.00 61 1017.8
20260507194117 23 0.0 0.0 0.00 0.00 0.00 63 1017.9
20260507193118 22 0.0 0.0 0.00 0.00 0.00 63 1018.1
20260507192117 22 0.0 0.0 0.00 0.00 0.00 66 1018.2
20260507191117 22 0.0 0.0 0.00 0.00 0.00 67 1018.4
20260507185318 21 0.0 0.0 0.00 0.00 0.00 71 1018.5
20260507184317 20 0.0 0.0 0.00 0.00 0.00 70 1018.7
20260507183317 20 0.0 0.0 0.00 0.00 0.00 72 1018.9
20260507182317 19 0.0 0.0 0.00 0.00 0.00 73 1019.0
20260507181318 18 0.0 0.0 0.00 0.00 0.00 75 1019.1
20260507180317 18 0.0 0.0 0.00 0.00 0.00 79 1019.1
20260507175317 17 0.0 0.0 0.00 0.00 0.00 80 1019.2
20260507174318 16 0.0 0.0 0.00 0.00 0.00 82 1019.1
20260507173337 16 0.0 0.0 0.00 0.00 0.00 87 1019.3
20260507172315 15 0.0 0.0 0.00 0.00 0.00 87 1019.3
20260507171321 15 0.0 0.0 0.00 0.00 0.00 87 1019.4
20260507170317 15 0.0 0.0 0.00 0.00 0.00 88 1019.5
20260507165317 14 0.0 0.0 0.00 0.00 0.00 90 1019.6
20260507164318 13 0.0 0.0 0.00 0.00 0.00 91 1019.6
20260507163318 13 0.0 0.0 0.00 0.00 0.00 90 1019.6
20260507162317 13 0.0 0.0 0.00 0.00 0.00 91 1019.7
20260507161317 13 0.0 0.0 0.00 0.00 0.00 91 1019.7
20260507160317 13 0.0 0.0 0.00 0.00 0.00 91 1019.7
20260507155317 12 0.0 0.0 0.00 0.00 0.00 92 1019.8
20260507154317 12 0.0 0.0 0.00 0.00 0.00 92 1019.9
20260507153317 12 0.0 0.0 0.00 0.00 0.00 92 1019.9
20260507152338 12 0.0 0.0 0.00 0.00 0.00 92 1020.0
20260507151318 12 0.0 0.0 0.00 0.00 0.00 92 1019.9
20260507150317 12 0.0 0.0 0.00 0.00 0.00 92 1019.9
20260507145318 12 0.0 0.0 0.00 0.00 0.00 92 1020.0
20260507144318 12 0.0 0.0 0.00 0.00 0.00 92 1019.9
20260507143338 12 0.0 0.0 0.00 0.00 0.00 92 1019.9
20260507142318 12 0.0 0.0 0.00 0.00 0.00 92 1019.9
20260507141317 11 0.0 0.0 0.00 0.00 0.00 93 1019.8
20260507140317 11 0.0 0.0 0.00 0.00 0.00 92 1019.7
20260507135317 11 0.0 0.0 0.00 0.00 0.00 92 1019.6
20260507134317 10 0.0 0.0 0.00 0.00 0.00 92 1019.5
20260507133337 10 0.0 0.0 0.00 0.00 0.00 92 1019.5
20260507132317 10 0.0 0.0 0.00 0.00 0.00 91 1019.4
20260507131317 10 0.0 0.0 0.00 0.00 0.00 91 1019.4
20260507130335 10 0.0 0.0 0.00 0.00 0.00 91 1019.3
20260507130218 10 0.0 0.0 0.00 0.00 0.00 91 1019.4
20260507125116 10 0.0 0.0 0.00 0.00 0.00 91 1019.3
20260507124116 9 0.0 0.0 0.00 0.00 0.00 91 1019.3
20260507123116 9 0.0 0.0 0.00 0.00 0.00 91 1019.3
20260507122118 9 0.0 0.0 0.00 0.00 0.00 90 1019.3
20260507121116 9 0.0 0.0 0.00 0.00 0.00 90 1019.3
20260507120116 9 0.0 0.0 0.00 0.00 0.00 90 1019.4
20260507114117 9 0.0 0.0 0.00 0.00 0.00 89 1019.4
20260507113116 9 0.0 0.0 0.00 0.00 0.00 89 1019.3
20260507112138 9 0.0 0.0 0.00 0.00 0.00 89 1019.3
20260507111116 10 0.0 0.0 0.00 0.00 0.00 89 1019.3
20260507110143 10 0.0 0.0 0.00 0.00 0.00 89 1019.3
20260507105120 10 0.0 0.0 0.00 0.00 0.00 89 1019.4
20260507104117 10 0.0 0.0 0.00 0.00 0.00 89 1019.4
20260507103140 10 0.0 0.0 0.00 0.00 0.00 89 1019.4
20260507102116 10 0.0 0.0 0.00 0.00 0.00 89 1019.5
20260507101116 10 0.0 0.0 0.00 0.00 0.00 88 1019.4
20260507100116 10 0.0 0.0 0.00 0.00 0.00 88 1019.4
20260507095116 10 0.0 0.0 0.00 0.00 0.00 88 1019.4
20260507094116 10 0.0 0.0 0.00 0.00 0.00 88 1019.4
20260507093116 10 0.0 0.0 0.00 0.00 0.00 88 1019.5
20260507092116 10 0.0 0.0 0.00 0.00 0.00 87 1019.5
20260507091116 10 0.0 0.0 0.00 0.00 0.00 88 1019.5
20260507090116 11 0.0 0.0 0.00 0.00 0.00 87 1019.6
20260507085116 11 0.0 0.0 0.00 0.00 0.00 87 1019.6
20260507084116 11 0.0 0.0 0.00 0.00 0.00 87 1019.7
20260507083116 11 0.0 0.0 0.00 0.00 0.00 86 1019.7